Regional Weather Roundup
Issued by NWS

Home | Current Version | Previous Version | Graphics & Text | Print | Product List | Glossary On
Versions: 1 2 3 4 5 6 7 8 9 10 11 12 13 14 15 16 17 18 19 20 21 22 23 24 25 26 27 28 29 30 31 32 33 34 35 36 37 38 39 40 41 42 43 44 45 46 47 48 49 50
000
ASUS43 KBIS 301410
RWRND

NORTH DAKOTA REGIONAL WEATHER ROUNDUP
NATIONAL WEATHER SERVICE BISMARCK ND
900 AM CDT TUE AUG 30 2016

NOTE: "FAIR" INDICATES FEW OR NO CLOUDS BELOW 12,000 FEET WITH NO
SIGNIFICANT WEATHER AND/OR OBSTRUCTIONS TO VISIBILITY.


NDZ001>003-009>011-017-301500-
NORTHWEST NORTH DAKOTA

CITY           SKY/WX    TMP DP  RH WIND       PRES   REMARKS
WILLISTON      MOSUNNY   60  46  59 NE3       30.22R
MINOT          SUNNY     58  49  72 SE3       30.27R
MINOT AFB      SUNNY     58  48  71 SE5       30.26R
$$

NDZ018>021-031>035-040>046-301500-
SOUTHWEST NORTH DAKOTA

CITY           SKY/WX    TMP DP  RH WIND       PRES   REMARKS
BISMARCK       SUNNY     56  50  80 E3        30.29R
DICKINSON      SUNNY     61  49  64 S18       30.24S
GARRISON         N/A     61  52  72 E5        30.26S
HETTINGER ARPT SUNNY     63  52  67 SE14      30.27F
$$

NDZ004>008-012>016-024-026-027-054-301500-
NORTHEAST NORTH DAKOTA

CITY           SKY/WX    TMP DP  RH WIND       PRES   REMARKS
GRAND FORKS    SUNNY     60  52  74 W5        30.25S
GRND FRKS AFB  SUNNY     62  51  68 NW5       30.26S
DEVILS LAKE    SUNNY     61  56  83 CALM      30.28F
$$

NDZ022-023-025-028>030-036>039-047>053-301500-
SOUTHEAST NORTH DAKOTA

CITY           SKY/WX    TMP DP  RH WIND       PRES   REMARKS
FARGO          SUNNY     61  54  77 N3        30.25S
JAMESTOWN      SUNNY     61  54  77 CALM      30.27S
$$




USA.gov is the U.S. government's official web portal to all federal, state and local government web resources and services.